Other Surface Observations
Issued by NWS Tucson, AZ

Home | Current Version | Previous Version | Text Only | Print | Product List | Glossary On
Versions: 1 2 3 4 5 6 7 8 9 10 11 12 13 14 15 16 17 18 19 20 21 22 23 24 25 26 27 28 29 30 31 32 33 34 35 36 37 38 39 40 41 42 43 44 45 46 47 48 49 50
000
SXUS55 KTWC 292315
OSOTWC

WEATHER ROUNDUP FOR SOUTHEAST ARIZONA
NATIONAL WEATHER SERVICE TUCSON AZ
415 PM MST SUN MAY 29 2016

AZZ504>506-514-300015-
LOCATION       SKY/WX    TMP DP  RH WIND       PRES   REMARKS
TUCSON         SUNNY     94  12   5 SW10G28   29.91F
DAVIS-MONTHAN  SUNNY     94  13   5 SW17      29.89F
CHILDRENS PARK N/A      N/A N/A   5 SW9               PIMA CO DEQ
ALVERNON/22ND  N/A       94 N/A N/A SW6               PIMA CO DEQ
CHERRY/GLENN   N/A      N/A N/A N/A N/A               PIMA CO DEQ
TANGERINE      N/A       94 N/A N/A SW6               PIMA CO DEQ
CONTL RANCH    N/A       97  15   5 SW10              PIMA CO DEQ
GRANT/1ST      N/A       94  13   5 SW7               PIMA CO DEQ
CRAYCROFT/22ND N/A       93  16   6 N/A               PIMA CO DEQ
GOLFLINKS/KOLB N/A      N/A N/A N/A N/A               PIMA CO DEQ
AJO/12TH       N/A       94  17   6 S12               PIMA CO DEQ
SAGUARO EAST   N/A       34 -25   6 SW10              PIMA CO DEQ
FAIRGROUNDS    N/A       92 N/A N/A SW13              PIMA CO DEQ
SAGUARO        N/A       95  14   5 W6G17             *SABINO CYN
SAN CARLOS     N/A       95  18   6 W7G18             *SAN CARLOS
GREEN VALLEY   N/A       91  15   6 S11               PIMA CO DEQ
HORSE CAMP CYN N/A       89  13   6 SW12G26           *ARAVAIPA CYN
RINCON MTNS    N/A       76  10   8 SW3G13            *NR MANNING CAMP
$$

AZZ509>511-300015-
LOCATION       SKY/WX    TMP DP  RH WIND       PRES   REMARKS
SAFFORD        SUNNY     93  14   5 VRB6G17   29.89F
STRAY HORSE    N/A       71   7   8 SW9G20            *
TRAIL CABIN    N/A       79  13   8 SW6G15            *N OF GRANVILLE
BLACK HILLS    NOT AVBL
DRY LAKE       N/A       75  15  10 S7G17             *NATANES MTNS
NOON CREEK     N/A       86  15   7 S7G17             *PINALENO MTNS
COLUMBINE      N/A       64  14  14 S6G17             *PINALENO MTNS
GUTHRIE        N/A       81  17   9 S7G29             *SW OF GUTHRIE
$$

AZZ502-503-513-300015-
LOCATION       SKY/WX    TMP DP  RH WIND       PRES   REMARKS
NOGALES        SUNNY     89  18   7 S22G28    30.00F
SELLS          N/A       93  20   7 NW10G21           *
SASABE         N/A       90  10   5 S14G24            *ALTAR VLY
HOPKINS        N/A       78  12   8 SW7G23            *SANTA RITA MTNS
CARR CYN       N/A       84  19   9 N4G16             *W OF HEREFORD
$$

AZZ507-508-512-300015-
LOCATION       SKY/WX    TMP DP  RH WIND       PRES   REMARKS
SIERRA VISTA   SUNNY     86  19   8 SW18G25   30.05S
DOUGLAS        SUNNY     89  22   8 SW18G25   30.00F
EMPIRE MTNS    NOT AVBL
MULESHOE RANCH N/A       88  13   6 NW7G20            *PRESERVE
HEADQUARTERS   NOT AVBL
$$

.............................NOTES.............................
THIS IS AN AUTOMATED COLLECTIVE WITH MINIMAL QUALITY CONTROL.
PIMA CO DEQ SITES HAVE NONSTANDARD WIND SENSOR HEIGHTS.
PIMA CO DEQ SITES DO NOT REPORT WIND GUSTS.
* INDICATES WIND SENSORS LOCATED AT 20 FEET INSTEAD OF 33 FEET.
..............................KEY..............................
SKY/WX - SKY CONDITION/WEATHER
TMP    - TEMPERATURE IN FAHRENHEIT
DP     - DEWPOINT IN FAHRENHEIT
RH     - RELATIVE HUMIDITY IN PERCENT
WIND   - DIRECTION AND SPEED IN MILES PER HOUR (MPH)
VRB    - VARIABLE WIND DIRECTION
PRES   - MEAN SEA LEVEL PRESSURE IN INCHES OF MERCURY
         F - FALLING PRESSURE   R - RISING PRESSURE
         S - STEADY PRESSURE
VSB    - VISIBILITY IN MILES
HX     - HEAT INDEX IN FAHRENHEIT
WCI    - WIND CHILL INDEX IN FAHRENHEIT
N/A    - NOT AVAILABLE
AFB    - AIR FORCE BASE
         DAVIS-MONTHAN IS DAVIS-MONTHAN AIR FORCE BASE
CYN    - CANYON
MTNS   - MOUNTAINS
NCA    - NATIONAL CONSERVATION AREA
NR     - NEAR
VLY    - VALLEY
CONTL  - CONTINENTAL
PIMA CO DEQ - PIMA COUNTY DEPT OF ENVIRONMENTAL QUALITY



USA.gov is the U.S. government's official web portal to all federal, state and local government web resources and services.